This is the latest recevied weather packets stored in our database for station/object AI5BL. If no packets are shown the sender has not sent any weather packets the latest 10 day(s).
| Time | Temp. | Humidity | Pressure | Rain* | Wind** | Luminosity | Snow |
|---|---|---|---|---|---|---|---|
| 1787878460 | 25° C | 94% | 1016.7 hPa | 0 mm | - | 0 W/m² | - |
| 1787878156 | 25° C | 95% | 1016.6 hPa | 0 mm | - | 0 W/m² | - |
| 1787877852 | 25° C | 95% | 1016.6 hPa | 0 mm | - | 0 W/m² | - |
| 1787877547 | 25° C | 95% | 1016.4 hPa | 0 mm | - | 0 W/m² | - |
| 1787877243 | 25.56° C | 94% | 1016.4 hPa | 0 mm | - | 1 W/m² | - |
| 1787876943 | 25.56° C | 94% | 1016.3 hPa | 0 mm | - | 2 W/m² | - |
| 1787876638 | 25.56° C | 94% | 1016.1 hPa | 0 mm | - | 3 W/m² | - |
| 1787876338 | 25.56° C | 94% | 1016.4 hPa | 0 mm | - | 6 W/m² | - |
| 1787876037 | 25.56° C | 94% | 1016.5 hPa | 0 mm | - | 9 W/m² | - |
| 1787875732 | 25.56° C | 93% | 1016.5 hPa | 0 mm | - | 12 W/m² | - |
| 1787875431 | 25.56° C | 94% | 1016.5 hPa | 0 mm | - | 12 W/m² | - |
| 1787875130 | 26.11° C | 93% | 1016.5 hPa | 0 mm | - | 13 W/m² | - |
| 1787874825 | 26.11° C | 91% | 1016.4 hPa | 0 mm | - | 14 W/m² | - |
| 1787874523 | 26.11° C | 91% | 1016.5 hPa | 0 mm | - | 16 W/m² | - |
| 1787874219 | 26.11° C | 91% | 1016.4 hPa | 0 mm | - | 18 W/m² | - |
| 1787873913 | 26.11° C | 91% | 1016.3 hPa | 0 mm | - | 20 W/m² | - |
| 1787873613 | 26.11° C | 91% | 1016.2 hPa | 0 mm | - | 23 W/m² | - |
| 1787873308 | 26.11° C | 90% | 1016.3 hPa | 0 mm | - | 25 W/m² | - |
| 1787873007 | 26.11° C | 89% | 1016.2 hPa | 0 mm | - | 26 W/m² | - |
| 1787872703 | 26.11° C | 91% | 1016.2 hPa | 0 mm | - | 27 W/m² | - |
| 1787872399 | 26.11° C | 91% | 1016.3 hPa | 0 mm | - | 34 W/m² | - |
| 1787872099 | 26.67° C | 91% | 1016.4 hPa | 0 mm | - | 43 W/m² | - |
| 1787871793 | 26.67° C | 89% | 1016.5 hPa | 0 mm | - | 44 W/m² | - |
| 1787871488 | 26.67° C | 88% | 1016.5 hPa | 0 mm | - | 37 W/m² | - |
| 1787871184 | 27.22° C | 89% | 1016.6 hPa | 0 mm | - | 41 W/m² | - |
* Rain latest hour (hover to see other rain measurements)
** Current wind speed in m/s (hover to see current wind gust speed)